This demonstration page uses our WeatherBlox Daily Observations layout. Learn more.

Left ArrowRight Arrow

44.8408, -93.29828

Hourly Observations for June 26, 2017

Temp ( °F °C ) Dew Point ( °F °C ) Humidity (%) Winds ( mph kmh ) Pressure ( in mb ) Visibility ( mi km ) Precip ( " mm )
12:53 am 00:53 Mostly Clear 57 13.9 43 6.1 60 60 NNW 5 7 30.14 1021 10 16 0.00 0.00
1:53 am 01:53 Clear 54 12.2 44 6.7 69 69 NW 5 7 30.13 1020 10 16 0.00 0.00
2:53 am 02:53 Clear 54 12.2 44 6.7 69 69 NW 5 7 30.14 1021 10 16 0.00 0.00
3:53 am 03:53 Clear 53 11.7 44 6.7 72 72 NNW 6 9 30.15 1021 10 16 0.00 0.00
4:53 am 04:53 Clear 51 10.6 43 6.1 74 74 NW 5 7 30.16 1021 10 16 0.00 0.00
5:53 am 05:53 Sunny 51 10.6 43 6.1 74 74 NW 6 9 30.16 1022 10 16 0.00 0.00
6:53 am 06:53 Sunny 54 12.2 45 7.2 72 72 N 5 7 30.17 1022 10 16 0.00 0.00
7:53 am 07:53 Sunny 57 13.9 46 7.8 67 67 NNW 8 13 30.18 1022 10 16 0.00 0.00
8:53 am 08:53 Sunny 60 15.6 45 7.2 58 58 N 12 19 30.19 1022 10 16 0.00 0.00
9:53 am 09:53 Mostly Sunny 62 16.7 43 6.1 50 50 N 13 20 30.19 1022 10 16 0.00 0.00
10:53 am 10:53 Mostly Sunny 64 17.8 43 6.1 46 46 N 14 22 30.18 1022 10 16 0.00 0.00
11:53 am 11:53 Partly Cloudy 66 18.9 43 6.1 43 43 NNW 14 22 30.18 1022 10 16 0.00 0.00
12:53 pm 12:53 Partly Cloudy 68 20 43 6.1 40 40 NNW 8 13 30.16 1021 9 14 0.00 0.00
1:53 pm 13:53 Partly Cloudy 69 20.6 42 5.6 38 38 N 9 15 30.15 1021 10 16 0.00 0.00
2:53 pm 14:53 Mostly Cloudy 69 20.6 42 5.6 38 38 VRB 6 9 30.14 1021 10 16 0.00 0.00
3:53 pm 15:53 Mostly Cloudy 72 22.2 42 5.6 34 34 WNW 12 19 30.11 1020 10 16 0.00 0.00
4:53 pm 16:53 Mostly Cloudy 71 21.7 43 6.1 36 36 NNW 10 17 30.11 1020 10 16 0.00 0.00
5:21 pm 17:21 Mostly Cloudy 68 20 43 6.1 40 40 NE 14 22 30.09 1019 10 16 0.00 0.00
5:53 pm 17:53 Mostly Cloudy 68 20 43 6.1 40 40 NNE 9 15 30.11 1020 10 16 0.00 0.00
6:53 pm 18:53 Partly Cloudy 70 21.1 42 5.6 37 37 NNW 6 9 30.10 1019 10 16 0.00 0.00
7:53 pm 19:53 Mostly Sunny 70 21.1 42 5.6 37 37 VRB 3 6 30.09 1019 10 16 0.00 0.00
8:53 pm 20:53 Sunny 67 19.4 42 5.6 41 41 WNW 5 7 30.09 1019 10 16 0.00 0.00
9:53 pm 21:53 Clear 64 17.8 43 6.1 46 46 W 5 7 30.10 1019 10 16 0.00 0.00
10:53 pm 22:53 Clear 62 16.7 47 8.3 58 58 WSW 3 6 30.11 1020 10 16 0.00 0.00
11:53 pm 23:53 Clear 63 17.2 44 6.7 50 50 Calm 30.10 1019 10 16 0.00 0.00

Powered by AerisWeather